GTI781 KMSP-LTFM

Flight info

Callsign GTI781
Flight time N/A
Altitude 31000
Route WLSTN DCT SSM DCT YSB DCT IGSAS DCT BAREE N521B ALLRY/M084F330 DCT 51N050W 5230N04000W 5330N03000W 54N020W DCT DOGAL/N0482F330 DCT BEXET/N0477F350 DCT LIFFY DCT DOLAS DCT NAVPI DCT TIVUN DCT ESAMA DCT OSBIT DCT TENLO DCT LAMSI DCT SASAL DCT BABIT DCT DONIV DCT ETIDA T390 RILEX
Aircraft B77L/H-SDE1E2E3FGHIJ2J3J4J5M1RWXY/LB1D1

Departure

Time 2026-05-05 03:53
Airport Minneapolis–Saint Paul International Airport / Wold–Chamberlain Field (KMSP)

Arrival

Time N/A
Airport İstanbul Airport (LTFM)
Time Latitude Longitude Altitude Speed Heading
2026-05-05 03:28 44.88181 -93.23212 829 ft 0 kts 31°
2026-05-05 03:40 44.88173 -93.23220 827 ft 4 kts 29°
2026-05-05 03:41 44.88150 -93.23235 826 ft 4 kts 13°
2026-05-05 03:41 44.88125 -93.23238 827 ft 4 kts 347°
2026-05-05 03:41 44.88109 -93.23229 827 ft 0 kts 325°
2026-05-05 03:44 44.88109 -93.23230 827 ft 1 kts 325°
2026-05-05 03:44 44.88129 -93.23271 829 ft 9 kts 300°
2026-05-05 03:45 44.88180 -93.23395 829 ft 20 kts 301°
2026-05-05 03:45 44.88251 -93.23561 829 ft 20 kts 301°
2026-05-05 03:45 44.88318 -93.23714 829 ft 16 kts 302°
2026-05-05 03:45 44.88410 -93.23733 829 ft 15 kts 27°
2026-05-05 03:46 44.88498 -93.23650 829 ft 15 kts 34°
2026-05-05 03:46 44.88581 -93.23568 829 ft 15 kts 40°
2026-05-05 03:46 44.88593 -93.23438 827 ft 15 kts 112°
2026-05-05 03:46 44.88544 -93.23315 830 ft 14 kts 121°
2026-05-05 03:47 44.88491 -93.23196 829 ft 14 kts 120°
2026-05-05 03:47 44.88462 -93.23063 828 ft 14 kts 98°
2026-05-05 03:47 44.88437 -93.22928 828 ft 14 kts 116°
2026-05-05 03:47 44.88388 -93.22807 826 ft 14 kts 121°
2026-05-05 03:48 44.88336 -93.22689 829 ft 15 kts 122°
2026-05-05 03:48 44.88280 -93.22563 829 ft 16 kts 122°
2026-05-05 03:48 44.88222 -93.22431 829 ft 17 kts 121°
2026-05-05 03:48 44.88151 -93.22264 830 ft 23 kts 121°
2026-05-05 03:49 44.88058 -93.22048 827 ft 27 kts 121°
2026-05-05 03:49 44.87960 -93.21825 829 ft 27 kts 121°
2026-05-05 03:49 44.87864 -93.21602 828 ft 27 kts 121°
2026-05-05 03:49 44.87768 -93.21378 826 ft 27 kts 121°
2026-05-05 03:50 44.87672 -93.21155 829 ft 27 kts 121°
2026-05-05 03:50 44.87575 -93.20932 829 ft 27 kts 121°
2026-05-05 03:50 44.87473 -93.20722 829 ft 25 kts 136°
2026-05-05 03:50 44.87346 -93.20552 829 ft 25 kts 124°
2026-05-05 03:51 44.87260 -93.20356 829 ft 18 kts 121°
2026-05-05 03:51 44.87254 -93.20235 830 ft 9 kts 53°
2026-05-05 03:51 44.87281 -93.20201 828 ft 0 kts 36°
2026-05-05 03:52 44.87317 -93.20179 830 ft 13 kts 13°
2026-05-05 03:52 44.87421 -93.20281 826 ft 27 kts 303°
2026-05-05 03:52 44.87570 -93.20625 829 ft 71 kts 301°
2026-05-05 03:52 44.87965 -93.21541 827 ft 147 kts 301°
2026-05-05 03:53 44.88602 -93.23013 944 ft 193 kts 302°
2026-05-05 03:53 44.89409 -93.24456 1731 ft 181 kts 323°
2026-05-05 03:53 44.90548 -93.24940 2630 ft 177 kts
2026-05-05 03:53 44.91642 -93.24069 3173 ft 195 kts 49°
2026-05-05 03:54 44.92046 -93.22181 3617 ft 211 kts 85°
2026-05-05 03:54 44.92059 -93.20056 3956 ft 226 kts 83°
2026-05-05 03:54 44.92164 -93.17791 4364 ft 240 kts 80°
2026-05-05 03:54 44.92409 -93.15374 4763 ft 253 kts 70°
2026-05-05 03:55 44.92950 -93.12997 5219 ft 264 kts 64°
2026-05-05 03:55 44.93639 -93.10513 5596 ft 277 kts 63°
2026-05-05 03:55 44.94369 -93.07945 6141 ft 286 kts 62°
2026-05-05 03:55 44.95107 -93.05320 6790 ft 289 kts 63°
2026-05-05 03:56 44.95846 -93.02658 7429 ft 293 kts 63°
2026-05-05 03:56 44.96587 -92.99960 8065 ft 297 kts 63°
2026-05-05 03:56 44.97332 -92.97220 8713 ft 301 kts 64°
2026-05-05 03:56 44.98082 -92.94439 9356 ft 305 kts 65°
2026-05-05 03:57 44.98768 -92.91575 9930 ft 310 kts 68°
2026-05-05 03:57 44.99460 -92.88704 10376 ft 318 kts 65°
2026-05-05 03:57 45.00271 -92.85686 10534 ft 339 kts 65°
2026-05-05 03:57 45.01149 -92.82493 10705 ft 359 kts 65°
2026-05-05 03:58 45.02077 -92.79106 10875 ft 380 kts 65°
2026-05-05 03:58 45.03039 -92.75550 11232 ft 394 kts 66°
2026-05-05 03:58 45.04020 -92.71884 11760 ft 403 kts 66°
2026-05-05 03:58 45.05012 -92.68141 12395 ft 409 kts 66°
2026-05-05 03:59 45.06012 -92.64345 13081 ft 414 kts 67°
2026-05-05 03:59 45.07007 -92.60556 13736 ft 419 kts 67°
2026-05-05 03:59 45.08030 -92.56657 14237 ft 427 kts 67°
2026-05-05 03:59 45.09072 -92.52681 14698 ft 435 kts 67°
2026-05-05 04:00 45.10129 -92.48640 15220 ft 442 kts 67°
2026-05-05 04:00 45.11202 -92.44532 15732 ft 448 kts 67°
2026-05-05 04:00 45.12290 -92.40360 16231 ft 455 kts 67°
2026-05-05 04:00 45.13394 -92.36121 16724 ft 462 kts 66°
2026-05-05 04:01 45.14513 -92.31814 17200 ft 469 kts 66°
2026-05-05 04:01 45.15595 -92.27417 17674 ft 476 kts 70°
2026-05-05 04:01 45.16537 -92.22946 18117 ft 484 kts 72°
2026-05-05 04:01 45.17433 -92.18310 18518 ft 491 kts 73°
2026-05-05 04:02 45.18311 -92.13608 18933 ft 496 kts 73°
2026-05-05 04:02 45.19193 -92.08866 19294 ft 500 kts 73°
2026-05-05 04:02 45.20093 -92.04072 19758 ft 507 kts 72°
2026-05-05 04:02 45.21016 -91.99216 20334 ft 513 kts 72°
2026-05-05 04:03 45.21957 -91.94313 20922 ft 518 kts 72°
2026-05-05 04:03 45.22909 -91.89374 21334 ft 521 kts 72°
2026-05-05 04:03 45.23871 -91.84390 21628 ft 527 kts 72°
2026-05-05 04:03 45.24842 -91.79355 21915 ft 531 kts 72°
2026-05-05 04:04 45.25805 -91.74345 22244 ft 535 kts 72°
2026-05-05 04:04 45.26784 -91.69231 22580 ft 539 kts 72°
2026-05-05 04:04 45.27767 -91.64081 22901 ft 542 kts 72°
2026-05-05 04:04 45.28754 -91.58893 23201 ft 546 kts 72°
2026-05-05 04:05 45.29746 -91.53666 23444 ft 551 kts 72°
2026-05-05 04:05 45.30746 -91.48381 23571 ft 557 kts 72°
2026-05-05 04:05 45.31747 -91.43068 23948 ft 556 kts 72°
2026-05-05 04:05 45.32744 -91.37759 24333 ft 556 kts 72°
2026-05-05 04:06 45.33740 -91.32444 24653 ft 557 kts 73°
2026-05-05 04:06 45.34723 -91.27188 24931 ft 559 kts 73°
2026-05-05 04:06 45.35722 -91.21832 25170 ft 562 kts 73°
2026-05-05 04:06 45.36724 -91.16447 25421 ft 565 kts 73°
2026-05-05 04:07 45.37727 -91.11038 25684 ft 566 kts 73°
2026-05-05 04:07 45.38730 -91.05615 25984 ft 567 kts 73°
2026-05-05 04:07 45.39732 -91.00177 26232 ft 569 kts 73°
2026-05-05 04:07 45.40737 -90.94713 26452 ft 572 kts 73°
2026-05-05 04:08 45.41743 -90.89224 26690 ft 574 kts 73°
2026-05-05 04:08 45.42736 -90.83791 26938 ft 576 kts 73°
2026-05-05 04:08 45.43742 -90.78268 27172 ft 577 kts 73°
2026-05-05 04:08 45.44748 -90.72732 27419 ft 579 kts 73°
2026-05-05 04:09 45.45754 -90.67173 27666 ft 580 kts 73°
2026-05-05 04:09 45.46760 -90.61602 27890 ft 581 kts 73°
2026-05-05 04:09 45.47765 -90.56018 28101 ft 583 kts 73°
2026-05-05 04:09 45.48771 -90.50413 28297 ft 585 kts 74°
2026-05-05 04:10 45.49777 -90.44790 28508 ft 586 kts 74°
2026-05-05 04:10 45.50781 -90.39157 28744 ft 587 kts 74°
2026-05-05 04:10 45.51784 -90.33517 29001 ft 587 kts 74°
2026-05-05 04:10 45.52769 -90.27956 29265 ft 587 kts 74°
2026-05-05 04:11 45.53765 -90.22317 29588 ft 585 kts 74°
2026-05-05 04:11 45.54755 -90.16694 29910 ft 584 kts 74°
2026-05-05 04:11 45.55741 -90.11079 30164 ft 583 kts 74°
2026-05-05 04:11 45.56721 -90.05478 30462 ft 581 kts 74°
2026-05-05 04:12 45.57696 -89.99892 30659 ft 581 kts 74°
2026-05-05 04:12 45.58669 -89.94300 30687 ft 580 kts 74°
2026-05-05 04:12 45.60600 -89.83147 30687 ft 577 kts 74°
2026-05-05 04:13 45.62498 -89.72107 30704 ft 575 kts 74°
2026-05-05 04:13 45.64395 -89.61015 30671 ft 574 kts 75°
2026-05-05 04:14 45.66277 -89.49936 30681 ft 573 kts 75°
2026-05-05 04:14 45.68127 -89.38976 30686 ft 574 kts 75°
2026-05-05 04:15 45.69975 -89.27957 30666 ft 573 kts 75°
2026-05-05 04:15 45.71823 -89.16864 30665 ft 573 kts 75°
2026-05-05 04:16 45.73662 -89.05762 30649 ft 573 kts 75°
2026-05-05 04:16 45.75487 -88.94662 30649 ft 573 kts 75°
2026-05-05 04:17 45.77288 -88.83641 30636 ft 572 kts 75°